Find Hotsat-2

NORAD ID: 68461 Int'l Des: NNA 2026-067 Owner: SATVU Country: UK operational
LEOCIRCULARRETROGRADESSO

Live Position

Loading 3D Globe...

About Hotsat-2

Description loading...

Upcoming Passes

Passes for default location (London). Set your location on the main map for personalized predictions.

Altitude History

Loading altitude history...

Two-Line Element Set

1 68461U 26067AX 26107.83587568 .00005394 00000-0 27378-3 0 9993
2 68461 97.4514 67.1908 0001865 288.2945 71.8085 15.17322382 2786
Epoch: Apr 17, 2026 • Age: 78 hours

Current Status

Altitude 517.0 km
Velocity 7.61 km/s
Sub-Earth Point 21.71°N, 167.4°W
Launch Date Mar 30, 2026
Age 22 days
Type other

Technical Details

Classification Payload
Mass 130.00 kg
Dry Mass 130.00 kg
Total Mass 130.00 kg
Length 1.00 m
Diameter 0.50 m
Span 1.00 m
Shape Box+cone+1 pan
Manufacturer SSTL
Bus Type DarkCarb
Phase Status In Orbit
Owner/State SATVU/UK

Most Searched